﻿_id,日時,平均風速(m/s),平均風向,最大瞬間風速(m/s),最大風速時風向,気温(℃),湿度(%),10分間移動積算雨量(mm),1時間移動積算雨量(mm),日雨量(mm),累計雨量(mm)
1,2021-12-06T00:00:00,1,北北西,2.1,北,1.4,96.4,0,0,0.5,2
2,2021-12-06T00:01:00,1.1,北北西,2.1,北,1.4,96.3,0,0,0,2
3,2021-12-06T00:02:00,1.1,北北西,2.1,北,1.4,96.3,0,0,0,2
4,2021-12-06T00:03:00,1.1,北,2.1,北,1.5,96.4,0,0,0,2
5,2021-12-06T00:04:00,1,北,2.1,北,1.5,96.5,0,0,0,2
6,2021-12-06T00:05:00,0.8,北,2.1,北,1.5,96.5,0,0,0,2
7,2021-12-06T00:06:00,0.8,北,2.1,北,1.6,96.6,0,0,0,2
8,2021-12-06T00:07:00,0.7,北,2.1,北,1.5,96.5,0,0,0,2
9,2021-12-06T00:08:00,0.7,北,1.9,北北西,1.5,96.5,0,0,0,2
10,2021-12-06T00:09:00,0.7,北,1.9,北北西,1.6,96.5,0,0,0,2
11,2021-12-06T00:10:00,0.6,北,1.9,北北西,1.5,96.5,0,0,0,2
12,2021-12-06T00:11:00,0.6,北,1.2,北,1.5,96.5,0,0,0,2
13,2021-12-06T00:12:00,0.5,北,1.2,北,1.5,96.4,0,0,0,2
14,2021-12-06T00:13:00,0.6,北,1.2,北,1.5,96.5,0,0,0,2
15,2021-12-06T00:14:00,0.6,北,1.2,北,1.5,96.5,0,0,0,2
16,2021-12-06T00:15:00,0.6,北,1.2,北,1.5,96.5,0,0,0,2
17,2021-12-06T00:16:00,0.6,北,1.2,北,1.4,96.5,0,0,0,2
18,2021-12-06T00:17:00,0.6,北,1.2,北,1.4,96.4,0,0,0,2
19,2021-12-06T00:18:00,0.6,北,1.4,北北西,1.3,96.4,0,0,0,2
20,2021-12-06T00:19:00,0.7,北,1.6,西北西,1.2,96.2,0,0,0,2
21,2021-12-06T00:20:00,0.8,北,1.8,西北西,1.2,96.2,0,0,0,2
22,2021-12-06T00:21:00,0.9,北北西,1.8,西北西,1.2,96.2,0,0,0,2
23,2021-12-06T00:22:00,1,北北西,1.8,西北西,1.2,96.2,0,0,0,2
24,2021-12-06T00:23:00,1.1,北北西,1.8,西北西,1.2,96.3,0,0,0,2
25,2021-12-06T00:24:00,1.1,北北西,1.8,西北西,1.2,96.3,0,0,0,2
26,2021-12-06T00:25:00,1.1,北西,1.8,西北西,1.3,96.4,0,0,0,2
27,2021-12-06T00:26:00,1.1,北西,1.8,西北西,1.3,96.5,0,0,0,2
28,2021-12-06T00:27:00,1.1,北西,1.8,西北西,1.3,96.6,0,0,0,2
29,2021-12-06T00:28:00,1,西北西,1.8,西北西,1.2,96.5,0,0,0,2
30,2021-12-06T00:29:00,0.9,西北西,1.8,西北西,1.2,96.4,0,0,0,2
31,2021-12-06T00:30:00,0.8,西北西,1.8,北西,1.2,96.4,0,0,0,2
32,2021-12-06T00:31:00,0.7,西北西,1.8,北西,1.2,96.4,0,0,0,2
33,2021-12-06T00:32:00,0.6,西,1.6,北西,1.2,96.5,0,0,0,2
34,2021-12-06T00:33:00,0.4,西,1.3,北西,1.3,96.5,0,0,0,2
35,2021-12-06T00:34:00,0.3,西,1,北北西,1.3,96.5,0,0,0,2
36,2021-12-06T00:35:00,0.4,西,1.6,西北西,1.3,96.5,0,0,0,2
37,2021-12-06T00:36:00,0.5,西,1.7,西北西,1.3,96.5,0,0,0,2
38,2021-12-06T00:37:00,0.6,西,1.8,西北西,1.2,96.5,0,0,0,2
39,2021-12-06T00:38:00,0.7,西,1.8,西北西,1.2,96.5,0,0,0,2
40,2021-12-06T00:39:00,0.7,西,1.8,西北西,1.2,96.5,0,0,0,2
41,2021-12-06T00:40:00,0.7,西,1.8,西北西,1.3,96.5,0,0,0,2
42,2021-12-06T00:41:00,0.8,西,1.8,西北西,1.3,96.5,0,0,0,2
43,2021-12-06T00:42:00,0.9,西,1.8,西北西,1.3,96.6,0,0,0,2
44,2021-12-06T00:43:00,0.9,西,1.8,西北西,1.3,96.6,0,0,0,2
45,2021-12-06T00:44:00,1,西,1.8,西北西,1.3,96.5,0,0,0,2
46,2021-12-06T00:45:00,0.9,西,1.8,西北西,1.3,96.6,0,0,0,2
47,2021-12-06T00:46:00,0.9,西,1.8,西北西,1.3,96.5,0,0,0,2
48,2021-12-06T00:47:00,0.9,西北西,1.7,西,1.2,96.5,0,0,0,2
49,2021-12-06T00:48:00,1,西北西,1.7,西,1.3,96.5,0,0,0,2
50,2021-12-06T00:49:00,1,西北西,1.7,西,1.2,96.5,0,0,0,2
51,2021-12-06T00:50:00,1,西北西,1.7,西,1.2,96.5,0,0,0,2
52,2021-12-06T00:51:00,1.1,北西,1.7,西,1.2,96.5,0,0,0,2
53,2021-12-06T00:52:00,1.1,北西,1.7,北西,1.2,96.5,0,0,0,2
54,2021-12-06T00:53:00,1.2,北西,1.8,北北西,1.2,96.5,0,0,0,2
55,2021-12-06T00:54:00,1.3,北西,1.8,北北西,1.2,96.5,0,0,0,2
56,2021-12-06T00:55:00,1.3,北北西,1.8,北北西,1.2,96.5,0,0,0,2
57,2021-12-06T00:56:00,1.3,北北西,1.8,北北西,1.2,96.5,0,0,0,2
58,2021-12-06T00:57:00,1.2,北北西,1.8,北北西,1.2,96.5,0,0,0,2
59,2021-12-06T00:58:00,1.2,北北西,1.8,北北西,1.2,96.5,0,0,0,2
60,2021-12-06T00:59:00,1.1,北北西,1.8,北北西,1.2,96.5,0,0,0,2
61,2021-12-06T01:00:00,1.1,北北西,1.8,北北西,1.3,96.6,0,0,0,2
62,2021-12-06T01:01:00,1.1,北北西,1.8,北北西,1.2,96.6,0,0,0,2
63,2021-12-06T01:02:00,1,北北西,1.8,北北西,1.2,96.6,0,0,0,2
64,2021-12-06T01:03:00,0.9,北北西,1.7,北西,1.3,96.6,0,0,0,2
65,2021-12-06T01:04:00,0.8,北北西,1.3,北,1.4,96.6,0,0,0,2
66,2021-12-06T01:05:00,0.7,北,1.3,北,1.4,96.7,0,0,0,2
67,2021-12-06T01:06:00,0.7,北,1.3,北,1.5,96.7,0,0,0,2
68,2021-12-06T01:07:00,0.6,北,1.3,北,1.5,96.8,0,0,0,2
69,2021-12-06T01:08:00,0.6,北,1.3,北,1.5,96.8,0,0,0,2
70,2021-12-06T01:09:00,0.6,北,1.3,北,1.4,96.7,0,0,0,2
71,2021-12-06T01:10:00,0.5,北,1.3,北,1.3,96.6,0,0,0,2
72,2021-12-06T01:11:00,0.5,北,1.2,北,1.3,96.5,0,0,0,2
73,2021-12-06T01:12:00,0.5,北,1.3,北西,1.2,96.5,0,0,0,2
74,2021-12-06T01:13:00,0.6,北北西,1.4,北西,1.2,96.5,0,0,0,2
75,2021-12-06T01:14:00,0.6,北北西,1.4,北西,1.2,96.5,0,0,0,2
76,2021-12-06T01:15:00,0.7,北北西,1.4,北西,1.2,96.5,0,0,0,2
77,2021-12-06T01:16:00,0.7,北北西,1.4,北西,1.2,96.5,0,0,0,2
78,2021-12-06T01:17:00,0.7,北西,1.4,北西,1.3,96.6,0,0,0,2
79,2021-12-06T01:18:00,0.8,北西,1.4,北西,1.3,96.6,0,0,0,2
80,2021-12-06T01:19:00,0.8,北西,1.4,北西,1.3,96.6,0,0,0,2
81,2021-12-06T01:20:00,0.8,北西,1.4,北西,1.4,96.7,0,0,0,2
82,2021-12-06T01:21:00,0.8,北西,1.4,北西,1.3,96.7,0,0,0,2
83,2021-12-06T01:22:00,0.7,西北西,1.4,北西,1.4,96.7,0,0,0,2
84,2021-12-06T01:23:00,0.6,西北西,1.1,西北西,1.4,96.7,0,0,0,2
85,2021-12-06T01:24:00,0.6,西北西,1.1,西北西,1.6,96.8,0,0,0,2
86,2021-12-06T01:25:00,0.5,西北西,1.1,西北西,1.5,96.8,0,0,0,2
87,2021-12-06T01:26:00,0.5,西北西,1.1,西北西,1.5,96.8,0,0,0,2
88,2021-12-06T01:27:00,0.6,北西,1.1,西北西,1.6,96.8,0,0,0,2
89,2021-12-06T01:28:00,0.5,北西,1.1,西北西,1.6,96.8,0,0,0,2
90,2021-12-06T01:29:00,0.5,北西,1,北北西,1.5,96.8,0,0,0,2
91,2021-12-06T01:30:00,0.4,北北西,1,北北西,1.5,96.7,0,0,0,2
92,2021-12-06T01:31:00,0.4,北北西,1,北北西,1.5,96.7,0,0,0,2
93,2021-12-06T01:32:00,0.4,北北西,1,北北西,1.5,96.6,0,0,0,2
94,2021-12-06T01:33:00,0.5,北,1,北北西,1.4,96.7,0,0,0,2
95,2021-12-06T01:34:00,0.5,北北西,1,北北西,1.5,96.6,0,0,0,2
96,2021-12-06T01:35:00,0.5,北北西,1,北北西,1.5,96.7,0,0,0,2
97,2021-12-06T01:36:00,0.5,北西,0.9,北北西,1.5,96.7,0,0,0,2
98,2021-12-06T01:37:00,0.5,北西,0.9,北北西,1.5,96.7,0,0,0,2
99,2021-12-06T01:38:00,0.5,西北西,0.9,北北西,1.5,96.7,0,0,0,2
100,2021-12-06T01:39:00,0.5,西北西,0.9,北北西,1.5,96.7,0,0,0,2
101,2021-12-06T01:40:00,0.5,西北西,0.9,北北西,1.5,96.7,0,0,0,2
102,2021-12-06T01:41:00,0.5,西,0.9,北北西,1.5,96.7,0,0,0,2
103,2021-12-06T01:42:00,0.5,西,0.9,西,1.6,96.7,0,0,0,2
104,2021-12-06T01:43:00,0.5,西,0.9,西,1.6,96.8,0,0,0,2
105,2021-12-06T01:44:00,0.4,西,0.9,西,1.7,96.8,0,0,0,2
106,2021-12-06T01:45:00,0.4,西,0.9,西,1.8,96.9,0,0,0,2
107,2021-12-06T01:46:00,0.4,西北西,0.9,西,1.7,96.9,0,0,0,2
108,2021-12-06T01:47:00,0.3,西北西,0.9,西,1.7,96.8,0,0,0,2
109,2021-12-06T01:48:00,0.3,西北西,0.9,西,1.7,96.8,0,0,0,2
110,2021-12-06T01:49:00,0.3,西北西,0.9,西,1.7,96.8,0,0,0,2
111,2021-12-06T01:50:00,0.2,静穏,0.7,西,1.7,96.8,0,0,0,2
112,2021-12-06T01:51:00,0.2,静穏,0.5,西北西,1.9,96.9,0,0,0,2
113,2021-12-06T01:52:00,0.2,静穏,0.6,北北東,1.8,96.9,0,0,0,2
114,2021-12-06T01:53:00,0.2,静穏,0.6,北北東,1.7,96.9,0,0,0,2
115,2021-12-06T01:54:00,0.3,北北西,0.7,北北西,1.7,96.7,0,0,0,2
116,2021-12-06T01:55:00,0.3,北北西,0.7,北北西,1.7,96.7,0,0,0,2
117,2021-12-06T01:56:00,0.4,北西,0.7,北北西,1.7,96.7,0,0,0,2
118,2021-12-06T01:57:00,0.3,北北西,0.7,北北西,1.7,96.7,0,0,0,2
119,2021-12-06T01:58:00,0.3,北北西,0.7,北北西,1.7,96.7,0,0,0,2
120,2021-12-06T01:59:00,0.3,北北西,0.7,北北西,1.8,96.7,0,0,0,2
121,2021-12-06T02:00:00,0.2,静穏,0.7,北北西,1.7,96.8,0,0,0,2
122,2021-12-06T02:01:00,0.2,静穏,0.7,北北西,1.7,96.8,0,0,0,2
123,2021-12-06T02:02:00,0.2,静穏,0.7,北北西,1.8,96.8,0,0,0,2
124,2021-12-06T02:03:00,0.2,静穏,0.8,西,1.8,96.8,0,0,0,2
125,2021-12-06T02:04:00,0.3,西北西,0.8,西,1.7,96.7,0,0,0,2
126,2021-12-06T02:05:00,0.3,西北西,0.9,西,1.7,96.7,0,0,0,2
127,2021-12-06T02:06:00,0.3,西北西,0.9,西,1.7,96.7,0,0,0,2
128,2021-12-06T02:07:00,0.3,西,0.9,西,1.8,96.7,0,0,0,2
129,2021-12-06T02:08:00,0.4,西,0.9,西,1.7,96.7,0,0,0,2
130,2021-12-06T02:09:00,0.4,西南西,0.9,西,1.8,96.7,0,0,0,2
131,2021-12-06T02:10:00,0.5,西南西,0.9,西,1.8,96.8,0,0,0,2
132,2021-12-06T02:11:00,0.5,西南西,0.9,西,1.8,96.8,0,0,0,2
133,2021-12-06T02:12:00,0.6,西南西,0.9,西,1.8,96.8,0,0,0,2
134,2021-12-06T02:13:00,0.5,西南西,0.9,西,1.8,96.7,0,0,0,2
135,2021-12-06T02:14:00,0.5,西南西,0.9,西,1.8,96.8,0,0,0,2
136,2021-12-06T02:15:00,0.4,西南西,0.8,西南西,1.9,96.8,0,0,0,2
137,2021-12-06T02:16:00,0.4,西,1.1,西北西,1.8,96.7,0,0,0,2
138,2021-12-06T02:17:00,0.5,西,1.1,西北西,1.8,96.7,0,0,0,2
139,2021-12-06T02:18:00,0.5,西,1.3,西北西,1.8,96.7,0,0,0,2
140,2021-12-06T02:19:00,0.6,西北西,1.5,北西,1.9,96.7,0,0,0,2
141,2021-12-06T02:20:00,0.6,西北西,1.5,北西,1.9,96.7,0,0,0,2
142,2021-12-06T02:21:00,0.7,西北西,1.5,北西,1.9,96.7,0,0,0,2
143,2021-12-06T02:22:00,0.7,西北西,1.5,北西,1.9,96.7,0,0,0,2
144,2021-12-06T02:23:00,0.8,西北西,1.5,北西,1.9,96.7,0,0,0,2
145,2021-12-06T02:24:00,0.8,西北西,1.5,北西,1.9,96.6,0,0,0,2
146,2021-12-06T02:25:00,0.9,西北西,1.5,北西,1.9,96.6,0,0,0,2
147,2021-12-06T02:26:00,0.9,西北西,1.5,北西,1.9,96.6,0,0,0,2
148,2021-12-06T02:27:00,0.9,西北西,1.5,北西,2,96.7,0,0,0,2
149,2021-12-06T02:28:00,0.9,西北西,1.5,北西,1.9,96.6,0,0,0,2
150,2021-12-06T02:29:00,0.8,西北西,1.2,西北西,2,96.6,0,0,0,2
151,2021-12-06T02:30:00,0.8,西北西,1.2,西北西,2,96.6,0,0,0,2
152,2021-12-06T02:31:00,0.8,西北西,1.3,北西,2,96.6,0,0,0,2
153,2021-12-06T02:32:00,0.9,西,1.5,西北西,2,96.6,0,0,0,2
154,2021-12-06T02:33:00,0.9,西,1.5,西北西,1.9,96.5,0,0,0,2
155,2021-12-06T02:34:00,0.9,西,1.5,西北西,1.9,96.5,0,0,0,2
156,2021-12-06T02:35:00,0.9,西,1.5,西北西,1.9,96.4,0,0,0,2
157,2021-12-06T02:36:00,0.9,西,1.5,西北西,2,96.4,0,0,0,2
158,2021-12-06T02:37:00,0.9,西,1.5,西北西,2,96.5,0,0,0,2
159,2021-12-06T02:38:00,0.9,西,1.5,西北西,2,96.5,0,0,0,2
160,2021-12-06T02:39:00,0.8,西,1.5,西北西,2,96.4,0,0,0,2
161,2021-12-06T02:40:00,0.8,西,1.5,西北西,2.1,96.4,0,0,0,2
162,2021-12-06T02:41:00,0.7,西,1.5,西北西,2.1,96.5,0,0,0,2
163,2021-12-06T02:42:00,0.6,西,1.2,西北西,2.1,96.4,0,0,0,2
164,2021-12-06T02:43:00,0.5,西,1.2,西北西,2.2,96.5,0,0,0,2
165,2021-12-06T02:44:00,0.5,西,1.1,西南西,2.1,96.4,0,0,0,2
166,2021-12-06T02:45:00,0.4,西北西,1.2,北西,2.1,96.4,0,0,0,2
167,2021-12-06T02:46:00,0.4,西北西,1.2,北西,2.1,96.3,0,0,0,2
168,2021-12-06T02:47:00,0.4,西北西,1.2,北西,2.3,96.4,0,0,0,2
169,2021-12-06T02:48:00,0.4,北西,1.2,北西,2.2,96.5,0,0,0,2
170,2021-12-06T02:49:00,0.4,北西,1.2,北西,2.2,96.4,0,0,0,2
171,2021-12-06T02:50:00,0.5,北西,1.3,北北西,2.2,96.3,0,0,0,2
172,2021-12-06T02:51:00,0.6,北北西,1.3,北北西,2.1,96.2,0,0,0,2
173,2021-12-06T02:52:00,0.7,北北西,1.3,北北西,2.2,96.1,0,0,0,2
174,2021-12-06T02:53:00,0.7,北北西,1.3,北北西,2.3,96.3,0,0,0,2
175,2021-12-06T02:54:00,0.7,北北西,1.3,北北西,2.3,96.3,0,0,0,2
176,2021-12-06T02:55:00,0.7,北,1.3,北北西,2.2,96.3,0,0,0,2
177,2021-12-06T02:56:00,0.8,北,1.3,北北西,2.2,96.1,0,0,0,2
178,2021-12-06T02:57:00,0.8,北,1.3,北北西,2.3,96.1,0,0,0,2
179,2021-12-06T02:58:00,0.9,北北西,1.5,北,2.2,96.1,0,0,0,2
180,2021-12-06T02:59:00,0.9,北北西,1.5,北,2.2,96,0,0,0,2
181,2021-12-06T03:00:00,0.9,北北西,1.5,北,2.2,96,0,0,0,2
182,2021-12-06T03:01:00,0.9,北,1.6,北北西,2.2,96.1,0,0,0,2
183,2021-12-06T03:02:00,0.9,北,1.6,北北西,2.2,96,0,0,0,2
184,2021-12-06T03:03:00,0.9,北,1.6,北北西,2.2,96,0,0,0,2
185,2021-12-06T03:04:00,0.9,北,1.6,北北西,2.2,96,0,0,0,2
186,2021-12-06T03:05:00,0.8,北,1.6,北北西,2.3,96,0,0,0,2
187,2021-12-06T03:06:00,0.8,北,1.6,北北西,2.3,96,0,0,0,2
188,2021-12-06T03:07:00,0.7,北,1.6,北北西,2.3,96,0,0,0,2
189,2021-12-06T03:08:00,0.6,北,1.6,北北西,2.4,96.1,0,0,0,2
190,2021-12-06T03:09:00,0.4,北北東,1.6,北北西,2.5,96.1,0,0,0,2
191,2021-12-06T03:10:00,0.4,北北東,1.6,北北西,2.5,96.1,0,0,0,2
192,2021-12-06T03:11:00,0.4,北北東,0.9,北,2.4,96.1,0,0,0,2
193,2021-12-06T03:12:00,0.3,北北東,0.8,東北東,2.4,95.9,0,0,0,2
194,2021-12-06T03:13:00,0.2,静穏,0.8,東北東,2.4,95.9,0,0,0,2
195,2021-12-06T03:14:00,0.2,静穏,0.8,東北東,2.5,95.9,0,0,0,2
196,2021-12-06T03:15:00,0.2,静穏,0.8,東北東,2.5,95.9,0,0,0,2
197,2021-12-06T03:16:00,0.3,北北西,0.8,東北東,2.4,95.7,0,0,0,2
198,2021-12-06T03:17:00,0.3,北北西,0.8,東北東,2.4,95.6,0,0,0,2
199,2021-12-06T03:18:00,0.3,北西,0.8,東北東,2.5,95.6,0,0,0,2
200,2021-12-06T03:19:00,0.3,北北西,0.8,東北東,2.4,95.7,0,0,0,2
201,2021-12-06T03:20:00,0.3,北北西,0.8,東北東,2.4,95.5,0,0,0,2
202,2021-12-06T03:21:00,0.3,北西,0.7,北北東,2.5,95.5,0,0,0,2
203,2021-12-06T03:22:00,0.3,北西,0.7,北北東,2.5,95.5,0,0,0,2
204,2021-12-06T03:23:00,0.4,北西,0.7,北北東,2.4,95.5,0,0,0,2
205,2021-12-06T03:24:00,0.4,北北西,0.8,北西,2.3,95.3,0,0,0,2
206,2021-12-06T03:25:00,0.4,北北西,0.8,北西,2.3,95.2,0,0,0,2
207,2021-12-06T03:26:00,0.5,北北西,0.9,北北西,2.3,95.2,0,0,0,2
208,2021-12-06T03:27:00,0.5,北北西,0.9,北北西,2.4,95.2,0,0,0,2
209,2021-12-06T03:28:00,0.5,北北西,0.9,北北西,2.3,95.2,0,0,0,2
210,2021-12-06T03:29:00,0.5,北北西,0.9,北北西,2.4,95.3,0,0,0,2
211,2021-12-06T03:30:00,0.4,北西,0.9,北北西,2.4,95.2,0,0,0,2
212,2021-12-06T03:31:00,0.4,北西,0.9,北北西,2.4,95.2,0,0,0,2
213,2021-12-06T03:32:00,0.4,西北西,0.9,北北西,2.4,95.3,0,0,0,2
214,2021-12-06T03:33:00,0.3,西北西,0.9,北北西,2.4,95.2,0,0,0,2
215,2021-12-06T03:34:00,0.3,西,0.9,北北西,2.4,95.2,0,0,0,2
216,2021-12-06T03:35:00,0.2,静穏,0.9,北北西,2.6,95.3,0,0,0,2
217,2021-12-06T03:36:00,0.1,静穏,0.9,北西,2.7,95.6,0,0,0,2
218,2021-12-06T03:37:00,0.1,静穏,0.5,南南東,2.6,95.4,0,0,0,2
219,2021-12-06T03:38:00,0.1,静穏,0.5,南南東,2.7,95.3,0,0,0,2
220,2021-12-06T03:39:00,0.1,静穏,0.5,南南東,2.6,95.4,0,0,0,2
221,2021-12-06T03:40:00,0.1,静穏,0.5,南南東,2.6,95.2,0,0,0,2
222,2021-12-06T03:41:00,0.1,静穏,0.5,南南東,2.6,95.1,0,0,0,2
223,2021-12-06T03:42:00,0.1,静穏,0.5,南南東,2.5,95,0,0,0,2
224,2021-12-06T03:43:00,0.1,静穏,0.5,南南東,2.5,94.9,0,0,0,2
225,2021-12-06T03:44:00,0.1,静穏,0.5,南南東,2.7,95.1,0,0,0,0
226,2021-12-06T03:45:00,0.1,静穏,0.5,南南東,2.8,95.3,0,0,0,0
227,2021-12-06T03:46:00,0.1,静穏,0.5,北東,2.7,95.3,0,0,0,0
228,2021-12-06T03:47:00,0.1,静穏,0.5,北東,2.7,95.1,0,0,0,0
229,2021-12-06T03:48:00,0.1,静穏,0.5,北東,2.7,95.1,0,0,0,0
230,2021-12-06T03:49:00,0.1,静穏,0.5,北東,2.8,95,0,0,0,0
231,2021-12-06T03:50:00,0.1,静穏,0.5,北東,2.6,94.8,0,0,0,0
232,2021-12-06T03:51:00,0.1,静穏,0.6,西北西,2.6,94.4,0,0,0,0
233,2021-12-06T03:52:00,0.2,静穏,0.6,西北西,2.5,94.3,0,0,0,0
234,2021-12-06T03:53:00,0.2,静穏,0.6,西北西,2.6,94.3,0,0,0,0
235,2021-12-06T03:54:00,0.2,静穏,0.6,西北西,2.6,94.3,0,0,0,0
236,2021-12-06T03:55:00,0.2,静穏,0.6,西北西,2.5,94.3,0,0,0,0
237,2021-12-06T03:56:00,0.2,静穏,0.6,西北西,2.6,94.4,0,0,0,0
238,2021-12-06T03:57:00,0.2,静穏,0.6,西北西,2.7,94.6,0,0,0,0
239,2021-12-06T03:58:00,0.3,西北西,0.6,西北西,2.6,94.5,0,0,0,0
240,2021-12-06T03:59:00,0.3,西北西,0.8,西北西,2.6,94.4,0,0,0,0
241,2021-12-06T04:00:00,0.4,西北西,0.9,西北西,2.6,94.3,0,0,0,0
242,2021-12-06T04:01:00,0.4,西北西,0.9,西北西,2.6,94.3,0,0,0,0
243,2021-12-06T04:02:00,0.4,西北西,0.9,西北西,2.6,94.3,0,0,0,0
244,2021-12-06T04:03:00,0.4,西北西,0.9,西北西,2.6,94.5,0,0,0,0
245,2021-12-06T04:04:00,0.4,西北西,0.9,西北西,2.6,94.4,0,0,0,0
246,2021-12-06T04:05:00,0.4,西北西,0.9,西北西,2.7,94.5,0,0,0,0
247,2021-12-06T04:06:00,0.4,西北西,0.9,西北西,2.7,94.6,0,0,0,0
248,2021-12-06T04:07:00,0.4,北西,0.9,西北西,2.7,94.5,0,0,0,0
249,2021-12-06T04:08:00,0.5,北西,0.9,西北西,2.7,94.3,0,0,0,0
250,2021-12-06T04:09:00,0.4,北西,0.9,西北西,2.6,94.3,0,0,0,0
251,2021-12-06T04:10:00,0.4,北西,0.8,北北西,2.6,94.3,0,0,0,0
252,2021-12-06T04:11:00,0.4,北西,0.8,北北西,2.6,94.2,0,0,0,0
253,2021-12-06T04:12:00,0.5,北西,0.8,北北西,2.6,94.2,0,0,0,0
254,2021-12-06T04:13:00,0.5,北西,0.8,北北西,2.6,94.3,0,0,0,0
255,2021-12-06T04:14:00,0.5,北西,0.8,北北西,2.6,94.2,0,0,0,0
256,2021-12-06T04:15:00,0.5,北西,0.8,北北西,2.7,94.3,0,0,0,0
257,2021-12-06T04:16:00,0.6,北西,0.8,北北西,2.7,94.3,0,0,0,0
258,2021-12-06T04:17:00,0.6,北西,0.9,西北西,2.6,94.2,0,0,0,0
259,2021-12-06T04:18:00,0.6,北西,0.9,西北西,2.6,94.2,0,0,0,0
260,2021-12-06T04:19:00,0.6,北西,0.9,西北西,2.7,94.3,0,0,0,0
261,2021-12-06T04:20:00,0.6,西北西,0.9,西北西,2.7,94.4,0,0,0,0
262,2021-12-06T04:21:00,0.5,西北西,0.9,西北西,2.7,94.5,0,0,0,0
263,2021-12-06T04:22:00,0.5,西北西,0.9,西北西,2.7,94.4,0,0,0,0
264,2021-12-06T04:23:00,0.5,西北西,0.9,西北西,2.7,94.3,0,0,0,0
265,2021-12-06T04:24:00,0.5,西北西,0.9,西北西,2.7,94.3,0,0,0,0
266,2021-12-06T04:25:00,0.5,西北西,0.9,西北西,2.7,94.4,0,0,0,0
267,2021-12-06T04:26:00,0.5,西北西,1,北,2.8,94.5,0,0,0,0
268,2021-12-06T04:27:00,0.5,北西,1,北,2.8,94.8,0,0,0,0
269,2021-12-06T04:28:00,0.5,北西,1.2,北北西,2.9,94.9,0,0,0,0
270,2021-12-06T04:29:00,0.6,北西,1.3,北北西,2.7,94.6,0,0,0,0
271,2021-12-06T04:30:00,0.7,北西,1.3,北北西,2.7,94.1,0,0,0,0
272,2021-12-06T04:31:00,0.8,北西,1.7,北西,2.7,94.2,0,0,0,0
273,2021-12-06T04:32:00,0.9,北西,1.7,北西,2.7,94.3,0,0,0,0
274,2021-12-06T04:33:00,0.9,北北西,1.7,北西,2.7,94.4,0,0,0,0
275,2021-12-06T04:34:00,1.1,北北西,2,北,2.7,94.4,0,0,0,0
276,2021-12-06T04:35:00,1.2,北北西,2,北,2.7,94.5,0,0,0,0
277,2021-12-06T04:36:00,1.3,北北西,2,北,2.8,94.6,0,0,0,0
278,2021-12-06T04:37:00,1.4,北北西,2,北,2.8,94.8,0,0,0,0
279,2021-12-06T04:38:00,1.4,北北西,2,北,2.7,94.6,0,0,0,0
280,2021-12-06T04:39:00,1.4,北北西,2,北,2.7,94.5,0,0,0,0
281,2021-12-06T04:40:00,1.5,北北西,2,北,2.7,94.5,0,0,0,0
282,2021-12-06T04:41:00,1.5,北北西,2,北,2.8,94.7,0,0,0,0
283,2021-12-06T04:42:00,1.4,北北西,2,北,2.9,95,0,0,0,0
284,2021-12-06T04:43:00,1.4,北北西,2,北,2.9,95.1,0,0,0,0
285,2021-12-06T04:44:00,1.4,北北西,2,北,2.9,94.9,0,0,0,0
286,2021-12-06T04:45:00,1.4,北北西,2,北,2.9,94.8,0,0,0,0
287,2021-12-06T04:46:00,1.3,北北西,2,北,2.9,94.9,0,0,0,0
288,2021-12-06T04:47:00,1.3,北,2,北,2.9,94.9,0,0,0,0
289,2021-12-06T04:48:00,1.2,北,2,北,3,95,0,0,0,0
290,2021-12-06T04:49:00,1.1,北,2,北,2.9,95.1,0,0,0,0
291,2021-12-06T04:50:00,1,北,2,北,3,94.9,0,0,0,0
292,2021-12-06T04:51:00,1,北,2,北,2.9,95,0,0,0,0
293,2021-12-06T04:52:00,1,北,2,北,2.9,94.6,0,0,0,0
294,2021-12-06T04:53:00,0.9,北,2,北,2.9,94.6,0,0,0,0
295,2021-12-06T04:54:00,0.9,北,2,北,2.8,94.5,0,0,0,0
296,2021-12-06T04:55:00,0.9,北北西,1.5,北,2.9,94.5,0,0,0,0
297,2021-12-06T04:56:00,0.9,北北西,1.5,北,2.8,94.4,0,0,0,0
298,2021-12-06T04:57:00,0.9,北北西,1.3,北西,2.8,94.4,0,0,0,0
299,2021-12-06T04:58:00,0.9,北北西,1.3,北西,2.8,94.5,0,0,0,0
300,2021-12-06T04:59:00,0.9,北北西,1.3,北西,2.9,94.5,0,0,0,0
301,2021-12-06T05:00:00,0.9,北西,1.3,北西,2.9,94.5,0,0,0,0
302,2021-12-06T05:01:00,0.9,北西,1.3,北西,2.9,94.6,0,0,0,0
303,2021-12-06T05:02:00,0.9,北西,1.3,北西,2.9,94.6,0,0,0,0
304,2021-12-06T05:03:00,0.9,北西,1.3,北西,2.9,94.6,0,0,0,0
305,2021-12-06T05:04:00,0.8,北西,1.3,北西,2.9,94.7,0,0,0,0
306,2021-12-06T05:05:00,0.8,北西,1.3,北西,2.9,94.7,0,0,0,0
307,2021-12-06T05:06:00,0.7,北西,1.1,北西,2.9,94.9,0,0,0,0
308,2021-12-06T05:07:00,0.7,北西,1.1,北西,2.9,94.9,0,0,0,0
309,2021-12-06T05:08:00,0.6,北西,1,北西,2.9,94.9,0,0,0,0
310,2021-12-06T05:09:00,0.6,北西,1,北西,3,94.9,0,0,0,0
311,2021-12-06T05:10:00,0.6,西北西,1,北西,2.9,94.8,0,0,0,0
312,2021-12-06T05:11:00,0.6,西北西,1,北西,3,94.8,0,0,0,0
313,2021-12-06T05:12:00,0.6,西北西,1,北西,3,95,0,0,0,0
314,2021-12-06T05:13:00,0.5,西,0.8,西,3,94.9,0,0,0,0
315,2021-12-06T05:14:00,0.5,西,0.8,西,3,94.9,0,0,0,0
316,2021-12-06T05:15:00,0.5,西,0.8,西,3,94.8,0,0,0,0
317,2021-12-06T05:16:00,0.5,西,0.8,西,3,94.8,0,0,0,0
318,2021-12-06T05:17:00,0.5,西,0.8,西,3,94.8,0,0,0,0
319,2021-12-06T05:18:00,0.4,西,0.8,西,3,94.8,0,0,0,0
320,2021-12-06T05:19:00,0.4,西,0.7,西南西,3,94.8,0,0,0,0
321,2021-12-06T05:20:00,0.3,西,0.7,西南西,3,94.8,0,0,0,0
322,2021-12-06T05:21:00,0.2,静穏,0.6,西,3,94.9,0,0,0,0
323,2021-12-06T05:22:00,0.2,静穏,0.6,西,3,94.8,0,0,0,0
324,2021-12-06T05:23:00,0.2,静穏,0.6,西,3,94.8,0,0,0,0
325,2021-12-06T05:24:00,0.2,静穏,0.6,西,3,94.8,0,0,0,0
326,2021-12-06T05:25:00,0.1,静穏,0.6,西,3,94.8,0,0,0,0
327,2021-12-06T05:26:00,0.1,静穏,0.5,西北西,3,94.8,0,0,0,0
328,2021-12-06T05:27:00,0.1,静穏,0.4,西南西,3,94.8,0,0,0,0
329,2021-12-06T05:28:00,0.1,静穏,0.4,西南西,3.1,94.8,0,0,0,0
330,2021-12-06T05:29:00,0.1,静穏,0.6,西北西,3.1,94.8,0,0,0,0
331,2021-12-06T05:30:00,0.2,静穏,0.6,西北西,3.1,94.8,0,0,0,0
332,2021-12-06T05:31:00,0.2,静穏,0.7,西北西,3.1,94.7,0,0,0,0
333,2021-12-06T05:32:00,0.3,西,0.9,西北西,3.1,94.7,0,0,0,0
334,2021-12-06T05:33:00,0.3,西,1,西北西,3.1,94.7,0,0,0,0
335,2021-12-06T05:34:00,0.4,西,1.1,西北西,3.1,94.7,0,0,0,0
336,2021-12-06T05:35:00,0.5,西北西,1.2,西北西,3.1,94.6,0,0,0,0
337,2021-12-06T05:36:00,0.7,西北西,1.3,西北西,3.1,94.6,0,0,0,0
338,2021-12-06T05:37:00,0.8,西北西,1.3,西北西,3.1,94.6,0,0,0,0
339,2021-12-06T05:38:00,0.9,西北西,1.3,西北西,3.1,94.6,0,0,0,0
340,2021-12-06T05:39:00,0.9,西北西,1.3,西北西,3.1,94.7,0,0,0,0
341,2021-12-06T05:40:00,0.9,西北西,1.3,西北西,3.1,94.8,0,0,0,0
342,2021-12-06T05:41:00,1,西北西,1.3,西北西,3.1,94.8,0,0,0,0
343,2021-12-06T05:42:00,1,西北西,1.3,西北西,3.1,94.7,0,0,0,0
344,2021-12-06T05:43:00,1,西北西,1.3,西北西,3.1,94.8,0,0,0,0
345,2021-12-06T05:44:00,1,西北西,1.3,西北西,3.2,94.8,0,0,0,0
346,2021-12-06T05:45:00,0.9,北西,1.3,西北西,3.2,95,0,0,0,0
347,2021-12-06T05:46:00,0.8,北西,1.3,北西,3.4,95.2,0,0,0,0
348,2021-12-06T05:47:00,0.8,北西,1.3,北西,3.3,95.2,0,0,0,0
349,2021-12-06T05:48:00,0.7,北北西,1.3,北西,3.3,94.9,0,0,0,0
350,2021-12-06T05:49:00,0.7,北北西,1.3,北西,3.3,95.1,0,0,0,0
351,2021-12-06T05:50:00,0.6,北北西,1.3,北西,3.5,95.1,0,0,0,0
352,2021-12-06T05:51:00,0.6,北,1.3,北西,3.6,95.3,0,0,0,0
353,2021-12-06T05:52:00,0.5,北,1.3,北西,3.4,94.9,0,0,0,0
354,2021-12-06T05:53:00,0.4,北,1.1,北,3.4,94.4,0,0,0,0
355,2021-12-06T05:54:00,0.4,北,1.1,北,3.3,94.3,0,0,0,0
356,2021-12-06T05:55:00,0.5,北,1.1,北,3.4,94,0,0,0,0
357,2021-12-06T05:56:00,0.5,北,1.1,北,3.3,93.9,0,0,0,0
358,2021-12-06T05:57:00,0.5,北,1.1,北,3.3,93.8,0,0,0,0
359,2021-12-06T05:58:00,0.5,北,1,北西,3.2,93.5,0,0,0,0
360,2021-12-06T05:59:00,0.6,北北西,1.4,北西,3.2,93.5,0,0,0,0
361,2021-12-06T06:00:00,0.7,北北西,1.4,北西,3.2,93.6,0,0,0,0
362,2021-12-06T06:01:00,0.8,北北西,1.4,北西,3.2,93.7,0,0,0,0
363,2021-12-06T06:02:00,0.8,北北西,1.4,北西,3.2,93.8,0,0,0,0
364,2021-12-06T06:03:00,0.9,北北西,1.4,北西,3.2,93.9,0,0,0,0
365,2021-12-06T06:04:00,0.9,北西,1.4,北西,3.2,94,0,0,0,0
366,2021-12-06T06:05:00,0.9,北西,1.4,北西,3.3,94.2,0,0,0,0
367,2021-12-06T06:06:00,1,北西,1.4,北西,3.3,94.2,0,0,0,0
368,2021-12-06T06:07:00,0.9,北西,1.4,北西,3.3,94.4,0,0,0,0
369,2021-12-06T06:08:00,0.9,北西,1.4,北西,3.3,94.4,0,0,0,0
370,2021-12-06T06:09:00,0.8,北西,1.4,北西,3.3,94.5,0,0,0,0
371,2021-12-06T06:10:00,0.7,北西,1.4,北西,3.5,94.8,0,0,0,0
372,2021-12-06T06:11:00,0.7,北北西,1.3,北西,3.6,94.9,0,0,0,0
373,2021-12-06T06:12:00,0.6,北北西,1.2,北北西,3.6,95.2,0,0,0,0
374,2021-12-06T06:13:00,0.5,北北西,1.2,北北西,3.6,95.1,0,0,0,0
375,2021-12-06T06:14:00,0.4,北北西,1.1,北北西,3.5,94.4,0,0,0,0
376,2021-12-06T06:15:00,0.4,北北西,0.9,北西,3.4,94,0,0,0,0
377,2021-12-06T06:16:00,0.4,北北西,0.8,北北西,3.4,94,0,0,0,0
378,2021-12-06T06:17:00,0.4,北北西,0.8,北北西,3.4,94.2,0,0,0,0
379,2021-12-06T06:18:00,0.4,北,0.8,北北西,3.4,93.9,0,0,0,0
380,2021-12-06T06:19:00,0.4,北,0.8,北北西,3.5,94.2,0,0,0,0
381,2021-12-06T06:20:00,0.4,北,0.8,北北西,3.7,94.5,0,0,0,0
382,2021-12-06T06:21:00,0.4,北北西,0.8,北北西,3.5,94.4,0,0,0,0
383,2021-12-06T06:22:00,0.5,北北西,0.8,北北西,3.5,93.9,0,0,0,0
384,2021-12-06T06:23:00,0.5,北北西,0.8,北北西,3.5,93.8,0,0,0,0
385,2021-12-06T06:24:00,0.5,北北西,0.8,北北西,3.5,93.8,0,0,0,0
386,2021-12-06T06:25:00,0.5,北北西,0.8,北北西,3.6,94.2,0,0,0,0
387,2021-12-06T06:26:00,0.5,北北西,0.8,北北西,3.6,94.2,0,0,0,0
388,2021-12-06T06:27:00,0.4,北北西,0.8,北北西,3.5,94.2,0,0,0,0
389,2021-12-06T06:28:00,0.4,北北西,0.8,北北西,3.5,94,0,0,0,0
390,2021-12-06T06:29:00,0.4,北北西,0.8,北北西,3.5,94.1,0,0,0,0
391,2021-12-06T06:30:00,0.4,北西,0.8,北北西,3.5,94.1,0,0,0,0
392,2021-12-06T06:31:00,0.4,北西,0.8,北北西,3.5,94.1,0,0,0,0
393,2021-12-06T06:32:00,0.4,西北西,0.7,西南西,3.4,93.9,0,0,0,0
394,2021-12-06T06:33:00,0.4,西北西,0.8,西,3.4,93.9,0,0,0,0
395,2021-12-06T06:34:00,0.5,西北西,0.9,西北西,3.4,94,0,0,0,0
396,2021-12-06T06:35:00,0.5,西,0.9,西北西,3.4,94.1,0,0,0,0
397,2021-12-06T06:36:00,0.6,西,0.9,西北西,3.4,94.1,0,0,0,0
398,2021-12-06T06:37:00,0.6,西,0.9,西北西,3.5,94.2,0,0,0,0
399,2021-12-06T06:38:00,0.6,西北西,0.9,西北西,3.6,94.6,0,0,0,0
400,2021-12-06T06:39:00,0.6,西北西,0.9,西北西,3.6,94.4,0,0,0,0
401,2021-12-06T06:40:00,0.6,西北西,0.9,西北西,3.6,94.4,0,0,0,0
402,2021-12-06T06:41:00,0.6,北西,0.9,西北西,3.5,94.3,0,0,0,0
403,2021-12-06T06:42:00,0.6,北西,0.9,西北西,3.5,94.1,0,0,0,0
404,2021-12-06T06:43:00,0.6,北西,0.9,西北西,3.4,94,0,0,0,0
405,2021-12-06T06:44:00,0.6,北西,0.9,西北西,3.4,93.9,0,0,0,0
406,2021-12-06T06:45:00,0.6,北西,0.9,西北西,3.5,94,0,0,0,0
407,2021-12-06T06:46:00,0.6,北西,0.9,西北西,3.5,94,0,0,0,0
408,2021-12-06T06:47:00,0.6,北西,0.9,西北西,3.5,94.1,0,0,0,0
409,2021-12-06T06:48:00,0.7,北西,0.9,西北西,3.5,94.2,0,0,0,0
410,2021-12-06T06:49:00,0.7,北西,1.1,北西,3.5,94.2,0,0,0,0
411,2021-12-06T06:50:00,0.7,北西,1.2,北西,3.5,94.2,0,0,0,0
412,2021-12-06T06:51:00,0.8,北西,1.2,北西,3.5,94.2,0,0,0,0
413,2021-12-06T06:52:00,0.8,北西,1.2,北西,3.5,94.3,0,0,0,0
414,2021-12-06T06:53:00,0.8,北西,1.2,北西,3.6,94.4,0,0,0,0
415,2021-12-06T06:54:00,0.8,北西,1.2,北西,3.6,94.5,0,0,0,0
416,2021-12-06T06:55:00,0.8,北西,1.2,北西,3.6,94.4,0,0,0,0
417,2021-12-06T06:56:00,0.7,西北西,1.2,北西,3.6,94.3,0,0,0,0
418,2021-12-06T06:57:00,0.7,西北西,1.2,北西,3.6,94.5,0,0,0,0
419,2021-12-06T06:58:00,0.7,西北西,1.2,北西,3.5,94.2,0,0,0,0
420,2021-12-06T06:59:00,0.6,西北西,1.2,北西,3.6,94.2,0,0,0,0
421,2021-12-06T07:00:00,0.5,西北西,1.2,北西,3.5,94.2,0,0,0,0
422,2021-12-06T07:01:00,0.4,西北西,1.2,北西,3.6,94.3,0,0,0,0
423,2021-12-06T07:02:00,0.3,西北西,0.8,西,3.8,94.8,0,0,0,0
424,2021-12-06T07:03:00,,"",,"",,,,,,
425,2021-12-06T07:04:00,0.3,西北西,0.8,西,3.6,94.3,0,0,0,0
426,2021-12-06T07:05:00,0.3,西北西,1,北北西,3.6,94.1,0,0,0,0
427,2021-12-06T07:06:00,0.4,北西,1.2,北西,3.6,94.1,0,0,0,0
428,2021-12-06T07:07:00,0.5,北西,1.5,北北西,3.6,94.1,0,0,0,0
429,2021-12-06T07:08:00,0.5,北西,1.5,北北西,3.7,94.3,0,0,0,0
430,2021-12-06T07:09:00,0.6,北西,1.5,北北西,3.7,94.2,0,0,0,0
431,2021-12-06T07:10:00,0.6,北西,1.5,北北西,3.6,94.2,0,0,0,0
432,2021-12-06T07:11:00,0.7,北西,1.5,北北西,3.7,94.3,0,0,0,0
433,2021-12-06T07:12:00,0.7,北西,1.5,北北西,3.6,94.3,0,0,0,0
434,2021-12-06T07:13:00,0.7,北西,1.5,北北西,3.6,94.3,0,0,0,0
435,2021-12-06T07:14:00,0.7,西北西,1.5,北北西,3.6,94.4,0,0,0,0
436,2021-12-06T07:15:00,0.6,西北西,1.5,北北西,3.6,94.4,0,0,0,0